Location: Favalello
(42.2939°N, 9.2706°E)
Time: 08:08:44
(UTC+00:00)

CENTAUR R/B - Pass Details

Date: 06 December 2019
Orbit: 769 x 1419 km, 63.5° (Epoch: 28 January)

Event Time Altitude Azimuth Distance (km) Brightness Sun altitude
Rises 16:40:23 0° 322° (NW) 4,188 6.0 -9.1°
Reaches altitude 10° 16:43:05 10° 320° (NW) 3,293 5.5 -9.6°
Maximum altitude 16:51:12 70° 240° (WSW) 1,459 3.6 -11.0°
Drops below altitude 10° 16:59:53 10° 159° (SSE) 3,507 5.4 -12.5°
Sets 17:02:50 0° 157° (SSE) 4,472 5.9 -13.0°
